THORAD DELTA 1 DEB, 8161

Orbit data source: Space-Track

THORAD DELTA 1 DEB, 8161 is space debris in LEO originally from a launch on Fri, 15 Nov 1974 UTC launched from the Air Force Western Test Range (AFWTR). Debris objects in space refer to the collection of defunct objects orbiting the Earth. Examples of debris include non-operational satellites, rocket bodies, and fragments generated from explosions, collisions, or faulty payload assembly.

Loading next visibility...
Identifier
8161, 1974-089AB
Orbit
LEO
Country
Flag of USUS
Related business
Manufacturer
Unknown
Mission
Spacecraft
Bus & Motor
Unknown
Mass
Unknown
Launch date (UTC)
1974-11-15 (51 years ago)
Launch vehicle
Unknown
Launch site
Air Force Western Test Range (AFWTR)
Object type
Payload
Rocket body
Debris
Shape & HBR
Unknown shape, 0.1 m
Radar Cross Section
Small (<0.1 m²)

Expand to show TLE details & history
Last TLE update: 1 day ago

TLE from 1 day ago
0 THORAD DELTA 1 DEB
1 08161U 74089AB  26035.11201750 -.00000264  00000-0 -23544-2 0  9991
2 08161 101.2240  88.3041 0364877  31.2009  26.8076 11.99469167571737
Epoch: 2026-02-04T02:41Z
TLE epoch observation values (Epoch: 2026-02-04T02:41:18.312Z)
Latitude
58.22176°
Longitude
-104.89187°
Altitude
1,432.592 km
Speed
7.265 km/s
True Right ascension
04h 38m 52s
True Declination
58° 04' 51"
Sunlit
Object was in daylight at epoch
Visualization orbit readout
Latitude
Unknown
Longitude
Unknown
Altitude
Unknown
Speed
Unknown
Apparent Right ascension
Unknown
Apparent Declination
Unknown
Sunlit
N/A
Visualization observer readout
Local Sidereal Time
08:43:04
Azimuth
Unknown
Elevation
Unknown
Doppler factor
Unknown
Orbital elements
Apogee altitude
1,974.87 km
Perigee altitude
1,386.765 km
Semi-major axis
8,058.954 km
Eccentricity
0.03649
Inclination
101.224°
RAAN
88.3041°
Arg. of periapsis
31.2009°
True anomaly
28.77279°
Mean anomaly
26.8076°
Eccentric anomaly
27.78204°
Mean motion
3.00003 °/min
Orbital period
120 mins
BSTAR
-0.0023544
Loading maneuver chart data...
Computing Atmospheric mass density...

Documentation

Showing up to 5 results
|